2023/10/29 00:00:00,24.3, 6.1
2023/10/29 00:10:00,24.3, 6.4
2023/10/29 00:20:00,24.5, 6.5
2023/10/29 00:30:00,24.5, 7.0
2023/10/29 00:40:00,24.5, 6.7
2023/10/29 00:50:00,24.5, 6.6
2023/10/29 01:00:00,24.5, 6.7
2023/10/29 01:10:00,24.5, 6.7
2023/10/29 01:20:00,24.5, 6.8
2023/10/29 01:30:00,24.5, 7.3
2023/10/29 01:40:00,24.4, 7.2
2023/10/29 01:50:00,24.4, 7.1
2023/10/29 02:00:00,24.3, 7.1
2023/10/29 02:10:00,24.1, 7.1
2023/10/29 02:20:00,24.1, 7.2
2023/10/29 02:30:00,24.3, 7.2
2023/10/29 02:40:00,24.3, 7.8
2023/10/29 02:50:00,24.3, 7.4
2023/10/29 03:00:00,24.3, 7.8
2023/10/29 03:10:00,24.3, 8.0
2023/10/29 03:20:00,24.4, 7.8
2023/10/29 03:30:00,24.3, 7.9
2023/10/29 03:40:00,24.3, 7.8
2023/10/29 03:50:00,24.4, 7.8
2023/10/29 04:00:00,24.4, 7.6
2023/10/29 04:10:00,24.5, 7.8
2023/10/29 04:20:00,24.5, 7.4
2023/10/29 04:30:00,24.4, 7.5
2023/10/29 04:40:00,24.5, 7.4
2023/10/29 04:50:00,24.4, 7.2
2023/10/29 05:00:00,24.3, 6.7
2023/10/29 05:10:00,24.2, 6.6
2023/10/29 05:20:00,24.1, 6.4
2023/10/29 05:30:00,24.1, 6.4
2023/10/29 05:40:00,24.1, 6.2
2023/10/29 05:50:00,24.2, 6.3
2023/10/29 06:00:00,24.0, 6.3
2023/10/29 06:10:00,23.8, 6.2
2023/10/29 06:20:00,24.1, 6.6
2023/10/29 06:30:00,24.2, 6.6
2023/10/29 06:40:00,24.3, 6.5
2023/10/29 06:50:00,24.3, 6.7
2023/10/29 07:00:00,24.4, 6.9
2023/10/29 07:10:00,24.5, 7.1
2023/10/29 07:20:00,24.7, 6.9
2023/10/29 07:30:00,24.6, 7.1
2023/10/29 07:40:00,24.7, 6.9
2023/10/29 07:50:00,24.7, 7.1
2023/10/29 08:00:00,24.6, 7.8
2023/10/29 08:10:00,24.8, 8.6
2023/10/29 08:20:00,25.0, 8.8
2023/10/29 08:30:00,25.1, 9.2
2023/10/29 08:40:00,25.2, 9.6
2023/10/29 08:50:00,25.3, 9.8
2023/10/29 09:00:00,25.3,10.1
2023/10/29 09:10:00,25.4,10.0
2023/10/29 09:20:00,25.4, 9.9
2023/10/29 09:30:00,25.4,10.3
2023/10/29 09:40:00,25.5,10.1
2023/10/29 09:50:00,25.5,10.6
2023/10/29 10:00:00,25.5,11.2
2023/10/29 10:10:00,25.4,11.9
2023/10/29 10:20:00,25.2,12.2
2023/10/29 10:30:00,25.0,12.4
2023/10/29 10:40:00,24.4,13.2
2023/10/29 10:50:00,22.7,12.7
2023/10/29 11:00:00,18.6,13.0
2023/10/29 11:10:00, 7.3,13.4
2023/10/29 11:20:00, 1.6,13.1
2023/10/29 11:30:00, 1.3,12.4
2023/10/29 11:40:00,12.1,11.1
2023/10/29 11:50:00, 0.4,11.1
2023/10/29 12:00:00, 5.4,11.1
2023/10/29 12:10:00,12.8,11.4
2023/10/29 12:20:00,17.6,11.8
2023/10/29 12:30:00,22.7,12.3
2023/10/29 12:40:00,24.2,12.6
2023/10/29 12:50:00,24.7,12.9
2023/10/29 13:00:00,24.9,13.0
2023/10/29 13:10:00,25.2,13.4
2023/10/29 13:20:00,25.3,14.9
2023/10/29 13:30:00,25.2,12.9
2023/10/29 13:40:00,24.8,12.5
2023/10/29 13:50:00,24.7,12.9
2023/10/29 14:00:00,22.8,13.2
2023/10/29 14:10:00, 6.1,12.5
2023/10/29 14:20:00, 0.5,12.0
2023/10/29 14:30:00, 0.5,12.5
2023/10/29 14:40:00, 0.4,13.0
2023/10/29 14:50:00, 0.0,12.4
2023/10/29 15:00:00, 0.0,12.1
2023/10/29 15:10:00, 0.2,12.0
2023/10/29 15:20:00, 1.1,12.2
2023/10/29 15:30:00, 2.2,13.1
2023/10/29 15:40:00, 1.5,12.6
2023/10/29 15:50:00, 3.4,12.0
2023/10/29 16:00:00,15.7,11.4
2023/10/29 16:10:00,19.4,11.7
2023/10/29 16:20:00,21.1,11.5
2023/10/29 16:30:00,22.5,11.5
2023/10/29 16:40:00,23.5,11.3
2023/10/29 16:50:00,23.9,11.6
2023/10/29 17:00:00,24.3,11.3
2023/10/29 17:10:00,24.4,11.2
2023/10/29 17:20:00,24.4,11.0
2023/10/29 17:30:00,24.4,10.7
2023/10/29 17:40:00,24.3,10.4
2023/10/29 17:50:00,24.2,10.7
2023/10/29 18:00:00,24.1,10.0
2023/10/29 18:10:00,24.1,10.4
2023/10/29 18:20:00,24.1,10.4
2023/10/29 18:30:00,24.1,10.2
2023/10/29 18:40:00,24.1,10.3
2023/10/29 18:50:00,24.1,10.1
2023/10/29 19:00:00,24.1,10.0
2023/10/29 19:10:00,24.1,10.2
2023/10/29 19:20:00,24.1, 9.9
2023/10/29 19:30:00,24.1,10.0
2023/10/29 19:40:00,24.0, 9.9
2023/10/29 19:50:00,23.9, 9.8
2023/10/29 20:00:00,23.7, 9.4
2023/10/29 20:10:00,23.4, 9.6
2023/10/29 20:20:00,23.0, 9.5
2023/10/29 20:30:00,22.4, 9.3
2023/10/29 20:40:00,21.5, 9.2
2023/10/29 20:50:00,20.3, 9.4
2023/10/29 21:00:00,19.2, 8.9
2023/10/29 21:10:00,16.2, 9.0
2023/10/29 21:20:00,15.2, 9.1
2023/10/29 21:30:00,14.7, 8.9
2023/10/29 21:40:00,12.5, 8.9
2023/10/29 21:50:00,12.1, 8.8
2023/10/29 22:00:00,12.1, 8.9
2023/10/29 22:10:00, 9.8, 8.9
2023/10/29 22:20:00,11.2, 8.8
2023/10/29 22:30:00,10.6, 8.6
2023/10/29 22:40:00, 9.2, 8.5
2023/10/29 22:50:00, 9.1, 8.7
2023/10/29 23:00:00, 6.1, 8.5
2023/10/29 23:10:00, 3.8, 8.3
2023/10/29 23:20:00, 2.6, 7.8
2023/10/29 23:30:00, 1.4, 7.6
2023/10/29 23:40:00, 0.7, 7.5
2023/10/29 23:50:00, 0.2, 7.2
